Tracking 18987 objects as of 24-Feb-2018
HD Live streaming from Space Station
objects crossing your sky now

OBJECT H

Track OBJECT H now!
10-day predictions


NORAD ID: 43187
Int'l Code: 2018-014H
Perigee: 577.3 km
Apogee: 593.2 km
Inclination: 97.7 °
Period: 96.2 minutes
Semi major axis: 6956 km
RCS: Unknown
Launch date: February 1, 2018
Source: (TBD)
Launch site: VOSTOCHNY COSMODROME (VOSTO)

Note: This is SATELLITE DEBRIS
aabbcc
Your satellite tracking list
Your tracking list is empty




NASA's NSSDC Master Catalog

Two Line Element Set (TLE):
1 43187U 18014H   18055.34982320  .00000136  00000-0  17125-4 0  9997
2 43187  97.7276 325.2294 0011404 164.0569 196.1022 14.96384480  3440
Source of the keplerian elements: AFSPC